TimeCST,TemperatureF,Dew PointF,Humidity,Sea Level PressureIn,VisibilityMPH,Wind Direction,Wind SpeedMPH,Gust SpeedMPH,PrecipitationIn,Events,Conditions,WindDirDegrees,DateUTC
12:53 AM,26.1,19.0,75,30.32,10.0,West,4.6,-,N/A,,Clear,270,2013-01-06 06:53:00
1:53 AM,26.1,19.0,75,30.33,10.0,Calm,Calm,-,N/A,,Clear,0,2013-01-06 07:53:00
2:53 AM,27.0,21.0,78,30.34,10.0,NW,5.8,-,N/A,,Clear,320,2013-01-06 08:53:00
3:53 AM,28.0,21.0,75,30.35,10.0,WNW,3.5,-,N/A,,Clear,300,2013-01-06 09:53:00
4:53 AM,27.0,19.9,75,30.36,10.0,Calm,Calm,-,N/A,,Clear,0,2013-01-06 10:53:00
5:53 AM,25.0,19.9,81,30.37,10.0,Calm,Calm,-,N/A,,Clear,0,2013-01-06 11:53:00
6:53 AM,19.0,16.0,88,30.40,10.0,WNW,3.5,-,N/A,,Clear,300,2013-01-06 12:53:00
7:53 AM,21.9,18.0,85,30.43,10.0,WSW,3.5,-,N/A,,Clear,240,2013-01-06 13:53:00
8:53 AM,25.0,19.9,81,30.44,10.0,Calm,Calm,-,N/A,,Clear,0,2013-01-06 14:53:00
9:53 AM,32.0,23.0,69,30.45,10.0,WNW,4.6,-,N/A,,Clear,290,2013-01-06 15:53:00
10:53 AM,37.9,23.0,55,30.45,10.0,North,5.8,-,N/A,,Clear,360,2013-01-06 16:53:00
11:53 AM,39.9,21.0,47,30.44,10.0,Calm,Calm,-,N/A,,Clear,0,2013-01-06 17:53:00
12:53 PM,44.1,21.0,40,30.40,10.0,West,4.6,-,N/A,,Clear,280,2013-01-06 18:53:00
1:53 PM,46.9,19.9,34,30.37,10.0,Calm,Calm,-,N/A,,Clear,0,2013-01-06 19:53:00
2:53 PM,48.2,19.4,32,30.33,10.0,Calm,Calm,-,N/A,,Clear,0,2013-01-06 20:53:00
3:53 PM,50.0,19.0,29,30.34,10.0,Calm,Calm,-,N/A,,Clear,0,2013-01-06 21:53:00
4:53 PM,48.9,19.0,31,30.33,10.0,Calm,Calm,-,N/A,,Clear,0,2013-01-06 22:53:00
5:53 PM,44.1,19.0,37,30.34,10.0,Calm,Calm,-,N/A,,Clear,0,2013-01-06 23:53:00
6:53 PM,41.0,21.0,45,30.35,10.0,SSE,3.5,-,N/A,,Clear,160,2013-01-07 00:53:00
7:53 PM,39.0,19.9,46,30.34,10.0,SSE,3.5,-,N/A,,Clear,150,2013-01-07 01:53:00
9:53 PM,36.0,19.9,52,30.33,10.0,SSE,4.6,-,N/A,,Clear,150,2013-01-07 03:53:00
10:53 PM,34.0,19.9,56,30.33,10.0,SSE,6.9,-,N/A,,Clear,160,2013-01-07 04:53:00
11:53 PM,34.0,21.0,59,30.32,10.0,SSE,8.1,-,N/A,,Clear,150,2013-01-07 05:53:00